Regional Weather Roundup
Issued by NWS Wakefield, VA

Home | Current Version | Previous Version | Text Only | Print | Product List | Glossary Off
Versions: 1 2 3 4 5 6 7 8 9 10 11 12 13 14 15 16 17 18 19 20 21 22 23 24 25 26 27 28 29 30 31 32 33 34 35 36 37 38 39 40 41 42 43 44 45 46 47 48 49 50

687
ASUS41 KAKQ 210515
RWRAKQ

REGIONAL WEATHER ROUNDUP
NATIONAL WEATHER SERVICE WAKEFIELD VA
1200 AM EST SUN JAN 21 2018

Note: "fair" indicates few or no clouds below 12,000 feet with no
significant weather and/or obstructions to visibility. * = Denotes
station may not report precipitation (e.g., rain,snow,etc.),
thunder or fog.

VAZ042-051-052>054-056-210600-
NORTHERN VIRGINIA

CITY           SKY/WX    TMP DP  RH WIND       PRES   REMARKS
WASH NATIONAL  FAIR      38  31  76 S3        30.11S
DULLES         FAIR      36  29  75 CALM      30.11R
FORT BELVOIR   FAIR      31  27  82 CALM        N/A
QUANTICO       NOT AVBL
FREDERICKSBRG* FAIR      34  32  92 CALM      30.11R
STAFFORD*      FAIR      31  31 100 CALM      30.15S
WARRENTON      FAIR      26  21  82 CALM      30.10S
CULPEPER*      FAIR      31  26  80 CALM      30.12S
MANASSAS*      FAIR      25  22  88 CALM      30.11S
LEESBURG*      FAIR      32  30  93 CALM      30.11R
WINCHESTER     FAIR      43  30  61 W5        30.12R
FRONT ROYAL*   FAIR      43  30  61 SE5       30.10R
LURAY*         FAIR      37  32  81 W3        30.12R
$$

VAZ048-049-060>072-079>083-210600-
CENTRAL AND SOUTH CENTRAL VIRGINIA

CITY           SKY/WX    TMP DP  RH WIND       PRES   REMARKS
RICHMOND       FAIR      40  33  76 CALM      30.10S
CHESTERFIELD*  NOT AVBL
PETERSBURG*    FAIR      32  28  86 SW5       30.13R
HANOVER        FAIR      38  34  85 CALM      30.12S
TAPPAHANNOCK*  FAIR      41  34  78 CALM      30.11R
QUINTON*       FAIR      37  33  87 N5        30.10F
CHARLOTTSVILLE FAIR      49  34  56 S6        30.11R
GORDONSVILLE*  FAIR      34  32  91 CALM      30.11S
ORANGE*        FAIR      37  32  81 CALM      30.11S
LOUISA*        FAIR      39  31  75 SW3       30.16R
BUMPASS*       FAIR      40  32  72 W3        30.11R
FARMVILLE*     FAIR      40  40 100 CALM      30.13R
CREWE*         FAIR      48  38  67 CALM      30.13R
FORT PICKETT*  FAIR      38  36  92 W3        30.13R
CHASE CITY*    FAIR      43  37  77 W3        30.15R
CLARKSVILLE*   FAIR      46  37  71 W5        30.15S
SOUTH HILL*    FAIR      44  37  76 SW5       30.20R
LAWRENCEVILLE* FAIR      43  35  71 W3        30.14R
EMPORIA*       FAIR      32  30  93 CALM      30.16R
$$

VAZ088>098-210600-
SOUTHEAST VIRGINIA

CITY           SKY/WX    TMP DP  RH WIND       PRES   REMARKS
NORFOLK        FAIR      46  33  60 SW9       30.12R
VIRGINIA BEACH FAIR      43  30  60 SW9       30.12R
NORFOLK NAVAL  FAIR      50  33  52 SW8       30.13S
WEST POINT*    FAIR      32  29  89 CALM      30.13R
SALUDA*        FAIR      42  35  75 CALM      30.10S
NEWPORT NEWS   FAIR      43  33  68 SW3       30.12S
LANGLEY AFB    FAIR      41  32  70 SW8       30.11S
FORT EUSTIS    FAIR      41  32  70 CALM      30.09S
WILLIAMSBURG*  FAIR      41  30  65 CALM      30.13R
HR EXEC AP*    FAIR      44  32  62 SW6       30.14R
FRANKLIN*      FAIR      45  32  60 SW5       30.15R
US460-WAKEFLD  FAIR      39  32  76 SW3       30.13R
$$

VAZ020-022-025-037-045-210600-
WEST CENTRAL AND SOUTHWEST VIRGINIA

CITY           SKY/WX    TMP DP  RH WIND       PRES   REMARKS
STAUNTON*      FAIR      35  30  82 S3        30.15R
WAYNESBORO*    FAIR      47  39  73 W8        30.13R
HOT SPRINGS VA CLOUDY    42  39  90 W22G28    30.13S
LYNCHBURG      FAIR      41  36  82 CALM      30.14S
DANVILLE       FAIR      41  36  82 SW5       30.18R
SOUTH BOSTON*  FAIR      44  35  71 W5        30.17R
MARTINSVILLE   FAIR      33  32  94 CALM      30.21S
ROANOKE        FAIR      47  39  74 W8        30.18R
BLACKSBURG     FAIR      39  37  91 CALM      30.22R
DUBLIN*        FAIR      40  36  86 SW8       30.20S
MARION*        FAIR      39  33  78 W8        30.22S
HILLSVILLE*    FAIR      41  36  81 NW5       30.18S
RICHLANDS*     FAIR      43  32  66 SW7       30.21S
WISE*          FAIR      41  34  75 W10       30.22R
ABINGDON*      FAIR      35  33  91 CALM      30.23S
$$

MDZ021>025-VAZ099-100-210600-
SOUTHERN MARYLAND AND THE DELMARVA PENINSULA

CITY           SKY/WX    TMP DP  RH WIND       PRES   REMARKS
PATUXENT RIVER NOT AVBL
BAY BRIDGE APT FAIR      32  27  80 CALM      30.10S
LEONARDTOWN    FAIR      41  32  70 W3        30.11S
DOVER          FAIR      39  30  70 W3        30.08S
GEORGETOWN     FAIR      33  25  72 CALM      30.10R
EASTON         FAIR      33  26  73 CALM      30.13S
CAMBRIDGE      CLEAR     30  27  86 CALM      30.10S
SALISBURY      FAIR      30  25  81 CALM      30.10R
OCEAN CITY     FAIR      32  29  88 CALM      30.10S
WALLOPS ISLAND FAIR      44  33  65 W6        30.10F
ACCOMACK*      FAIR      38  33  83 SW5       30.11R
$$

NCZ012>017-030>032-210600-
NORTH CENTRAL AND EASTERN NORTH CAROLINA

CITY           SKY/WX    TMP DP  RH WIND       PRES   REMARKS
ROANOKE RAPIDS FAIR      39  32  75 SW5       30.16R
RALEIGH        FAIR      38  32  79 SW3       30.19S
ELIZABETH CITY FAIR      42  34  73 SW8       30.16S
AHOSKIE*       FAIR      41  32  70 CALM      30.16S
EDENTON*       FAIR      48  29  47 SW7       30.17S
CURRITUCK*     FAIR      44  29  55 SW3       30.16R
KILL DEVIL HLS FAIR      43  28  56 CALM      30.15F
MANTEO         FAIR      40  32  74 CALM      30.18S
CAPE HATTERAS  FAIR      48  36  63 W8        30.19F
TARBORO*       NOT AVBL
GOLDSBORO      FAIR      44  24  46 SW5       30.18S
WASHINGTON     FAIR      44  24  46 SW3       30.19S
GREENVILLE     FAIR      41  27  56 SW3       30.19S
NEW BERN       FAIR      42  28  57 SW6       30.22R
WILMINGTON     FAIR      42  34  73 SW3       30.24S
$$

VAZ048-210600-
ELSEWHERE

CITY           SKY/WX    TMP DP  RH WIND       PRES   REMARKS
HARRISBURG PA  FAIR      29  27  92 CALM      30.08S
BALTIMORE      FAIR      37  30  75 CALM      30.09R
ANNAPOLIS      FAIR      34  31  88 CALM      30.10R
ANDREWS AFB    FAIR      33  27  77 CALM      30.10R
PHILADELPHIA   FAIR      34  29  82 SE3       30.09R
HENDERSON NC   FAIR      38  32  78 SW6       30.17R
GREENSBORO     FAIR      39  33  79 SW6       30.18S
ROCKY MOUNT    NOT AVBL
$$

VAZ100-210600-
MARINE

STATION/POSITION TIME  TEMP    WIND        PRES    WAVE   SWELL
                       AIR SEA DIR/SP/G            HT/PER HT/PER
                 (UTC) (F)     (DEG/KT/KT) (MB)    (FT/S) (FT/S)
BRANDYWINE LGT   0442   46     260/ 13/ 14 1019.0R
CAPE MAY NJ      0448   39 34  360/  2/  3 1018.5R
LEWES DE         0442   44 34  260/  2/  3 1018.6S
15NM E FENWICK I 0450   41 39  220/  8/ 10 1019.4R   2/ 6   2/ 6
OCEAN-CITY-INLET 0442   37 37  200/  3/  4 1019.5R
WACHAPREAGUE VA  0442   37 36  210/  4/  6 1019.5R
THOMAS POINT MD  0500   47 33  260/  6/  6   N/A
GOOSES REEF MD   0500   35 33  210/  2/  2 1019.9    1
COVE POINT MD    0442   47     320/  4/  7 1019.8R
SOLOMONS ISLAND  0442   37 34  320/  4/  5 1018.8S
BISHOPS HEAD MD  0442   42 36  270/  5/  6 1019.3F
PINEY POINT MD   0442          330/  2/  2   N/A
POTOMAC MD       0500   43 35  360/  8/  8 1018.6    0
CAMBRIDGE MD     0442   33 33              1020.0R
LEWISETTA VA     0442   46 34   CALM  /  2 1019.2R
RAPPAHANNOCK LGT 0442          170/ 12/ 13 1020.0R
STINGRAY PT      0500   44 34  260/  6/  6 1022.0    0
YORK RVR RNG VA  0442   47     260/ 11/ 11 1020.0S
YORKTOWN VA      0442   49 35  250/  6/  8 1019.4R
DOMINION TERM VA 0442   47     270/  5/  8 1020.1R
KIPTOPEKE VA     0442      35  160/  3/  3   N/A
CAPE HENRY VA    0442   51     230/  9/ 12   N/A
WILLOUBY STN VA  0442          260/  7/  8 1019.8R
S CRANEY ISL VA  0442   50     240/  7/ 11 1019.7R
CAPE HENRY BUOY  0500      38                N/A     2/11
1ST LANDING BUOY 0500   43 35  250/  8/ 10 1019.9    1/ 4
CAPE CHARLES BUO 0451      39                N/A     2/13
64NM E OF VA BCH 0450   53 54  240/ 14/ 16 1021.1R   4/ 5   2/ 8
DUCK PIER NC     0442   46 40  220/ 12/ 15 1020.7F
44100 DUCK FRF   0445      41                N/A     2/11
44056 DUCK FRF   0500      40                N/A     1/12
OREGON INLET NC  0442   40 41  210/  6/  6 1021.9F
HATTERAS NC      0442   50 50  270/ 13/ 16 1022.0F
DIAMOND SHLS NC  0450   60 68  270/ 17/ 21 1022.5F   5/ 6   2/11
CAPE LOOKOUT NC  0500          260/ 11/ 13 1023.2F
$$




USA.gov is the U.S. government's official web portal to all federal, state and local government web resources and services.